Location: Alexandria
(38.8050°N, 77.0470°W)
Time: 17:26:47
(UTC-05:00)

Tiangong 1 - Pass Details

Date: 11 November 2017
Orbit: 283 x 307 km, 42.8° (Epoch: 24 November)

Event Time Altitude Azimuth Distance (km) Brightness Sun altitude
Exits shadow 06:11:14 10° 278° (W) 1,132 2.8 -7.3°
Maximum altitude 06:13:37 37° 208° (SSW) 467 1.4 -6.9°
Drops below altitude 10° 06:16:02 10° 137° (SE) 1,145 4.6 -6.4°
Sets 06:18:03 0° 129° (SE) 1,970 6.2 -6.1°
